SXS3HZ LTBJ-LOWW

Flight info

Callsign SXS3HZ
Flight time N/A
Altitude 36000
Route VEXOL1Z/16L VEXOL UY134 KERMA UL618 LMO DCT EVIVI L863 OKANA DCT DONIV DCT PARAK DCT BALUX DCT TORNO DCT NATEX NATEX2W
Aircraft B738/M-SDE2E3FGHIRWXY/LB1

Departure

Time 2026-05-06 17:45
Airport Adnan Menderes International Airport (LTBJ)

Arrival

Time N/A
Airport Vienna International Airport (LOWW)
Time Latitude Longitude Altitude Speed Heading
2026-05-06 17:13 38.29711 27.14936 410 ft 0 kts 255°
2026-05-06 17:33 38.29715 27.14954 383 ft 3 kts 250°
2026-05-06 17:33 38.29723 27.14978 411 ft 3 kts 239°
2026-05-06 17:33 38.29734 27.14998 406 ft 3 kts 216°
2026-05-06 17:33 38.29750 27.15007 406 ft 2 kts 173°
2026-05-06 17:34 38.29754 27.15006 406 ft 1 kts 167°
2026-05-06 17:36 38.29751 27.15007 406 ft 2 kts 167°
2026-05-06 17:36 38.29714 27.15018 409 ft 9 kts 167°
2026-05-06 17:37 38.29644 27.15038 410 ft 11 kts 167°
2026-05-06 17:37 38.29557 27.15066 410 ft 15 kts 166°
2026-05-06 17:37 38.29439 27.15100 410 ft 19 kts 167°
2026-05-06 17:37 38.29302 27.15143 410 ft 21 kts 167°
2026-05-06 17:38 38.29158 27.15183 406 ft 21 kts 168°
2026-05-06 17:38 38.29052 27.15218 410 ft 10 kts 165°
2026-05-06 17:38 38.29012 27.15274 410 ft 9 kts 102°
2026-05-06 17:38 38.28957 27.15313 407 ft 10 kts 164°
2026-05-06 17:39 38.28883 27.15336 413 ft 13 kts 168°
2026-05-06 17:39 38.28794 27.15361 415 ft 13 kts 166°
2026-05-06 17:39 38.28707 27.15389 413 ft 13 kts 165°
2026-05-06 17:39 38.28608 27.15417 415 ft 17 kts 167°
2026-05-06 17:40 38.28485 27.15456 415 ft 20 kts 167°
2026-05-06 17:40 38.28343 27.15494 415 ft 22 kts 169°
2026-05-06 17:40 38.28189 27.15543 413 ft 23 kts 163°
2026-05-06 17:40 38.28038 27.15589 410 ft 22 kts 168°
2026-05-06 17:41 38.27905 27.15624 416 ft 11 kts 168°
2026-05-06 17:41 38.27829 27.15652 418 ft 11 kts 162°
2026-05-06 17:41 38.27762 27.15691 418 ft 11 kts 115°
2026-05-06 17:41 38.27771 27.15782 418 ft 9 kts 76°
2026-05-06 17:42 38.27772 27.15785 418 ft 0 kts 76°
2026-05-06 17:42 38.27773 27.15794 417 ft 3 kts 76°
2026-05-06 17:43 38.27787 27.15864 416 ft 13 kts 76°
2026-05-06 17:43 38.27807 27.15988 411 ft 15 kts 79°
2026-05-06 17:43 38.27834 27.16109 412 ft 11 kts 51°
2026-05-06 17:43 38.27868 27.16113 416 ft 0 kts 343°
2026-05-06 17:44 38.27869 27.16113 416 ft 1 kts 343°
2026-05-06 17:44 38.28016 27.16066 412 ft 56 kts 347°
2026-05-06 17:44 38.28634 27.15879 419 ft 125 kts 347°
2026-05-06 17:45 38.29662 27.15580 534 ft 169 kts 344°
2026-05-06 17:45 38.30798 27.15282 1340 ft 165 kts 345°
2026-05-06 17:45 38.31907 27.14938 2150 ft 164 kts 345°
2026-05-06 17:45 38.33006 27.14597 2934 ft 161 kts 345°
2026-05-06 17:46 38.34086 27.14267 3691 ft 161 kts 346°
2026-05-06 17:46 38.35268 27.13910 3973 ft 191 kts 346°
2026-05-06 17:46 38.36642 27.13456 4207 ft 216 kts 339°
2026-05-06 17:46 38.37931 27.12316 4437 ft 239 kts 314°
2026-05-06 17:47 38.38839 27.10447 4736 ft 261 kts 289°
2026-05-06 17:47 38.39043 27.08101 5384 ft 272 kts 269°
2026-05-06 17:47 38.38933 27.05681 6236 ft 275 kts 268°
2026-05-06 17:47 38.38814 27.03223 7028 ft 279 kts 268°
2026-05-06 17:48 38.38695 27.00746 7863 ft 281 kts 269°
2026-05-06 17:48 38.38581 26.98252 8714 ft 283 kts 269°
2026-05-06 17:48 38.38467 26.95736 9549 ft 286 kts 270°
2026-05-06 17:48 38.38354 26.93197 10321 ft 290 kts 270°
2026-05-06 17:49 38.38239 26.90537 10595 ft 312 kts 270°
2026-05-06 17:49 38.38114 26.87669 10782 ft 336 kts 270°
2026-05-06 17:49 38.37979 26.84601 10953 ft 357 kts 270°
2026-05-06 17:49 38.37835 26.81407 11270 ft 372 kts 270°
2026-05-06 17:50 38.37682 26.78089 11884 ft 376 kts 269°
2026-05-06 17:50 38.37526 26.74756 12624 ft 378 kts 270°
2026-05-06 17:50 38.37368 26.71408 13352 ft 380 kts 270°
2026-05-06 17:50 38.37210 26.68036 14012 ft 383 kts 270°
2026-05-06 17:51 38.37050 26.64634 14607 ft 386 kts 270°
2026-05-06 17:51 38.36889 26.61212 15207 ft 389 kts 269°
2026-05-06 17:51 38.36726 26.57759 15804 ft 392 kts 269°
2026-05-06 17:51 38.36561 26.54279 16397 ft 395 kts 269°
2026-05-06 17:52 38.36393 26.50773 16966 ft 398 kts 269°
2026-05-06 17:52 38.36223 26.47238 17529 ft 402 kts 269°
2026-05-06 17:52 38.36050 26.43670 18077 ft 405 kts 269°
2026-05-06 17:52 38.35874 26.40076 18579 ft 408 kts 269°
2026-05-06 17:53 38.35696 26.36456 19067 ft 410 kts 269°
2026-05-06 17:53 38.35517 26.32823 19571 ft 412 kts 269°
2026-05-06 17:53 38.35335 26.29171 20072 ft 414 kts 270°
2026-05-06 17:53 38.35153 26.25501 20552 ft 416 kts 270°
2026-05-06 17:54 38.34967 26.21810 21041 ft 418 kts 270°
2026-05-06 17:54 38.34832 26.18114 21511 ft 419 kts 273°
2026-05-06 17:54 38.34838 26.14397 21945 ft 420 kts 275°
2026-05-06 17:54 38.35060 26.10690 22356 ft 420 kts 279°
2026-05-06 17:55 38.35371 26.06979 22756 ft 423 kts 280°
2026-05-06 17:55 38.35674 26.03290 23168 ft 425 kts 279°
2026-05-06 17:55 38.35957 25.99542 23640 ft 426 kts 279°
2026-05-06 17:55 38.36225 25.95776 23993 ft 428 kts 279°
2026-05-06 17:56 38.36725 25.92061 24268 ft 424 kts 292°
2026-05-06 17:56 38.38084 25.88763 24602 ft 420 kts 308°
2026-05-06 17:56 38.40061 25.86039 24977 ft 419 kts 320°
2026-05-06 17:56 38.42445 25.83902 25282 ft 421 kts 332°
2026-05-06 17:57 38.45190 25.82558 25584 ft 425 kts 341°
2026-05-06 17:57 38.48031 25.81486 25894 ft 427 kts 342°
2026-05-06 17:57 38.50890 25.80433 26179 ft 429 kts 342°
2026-05-06 17:57 38.53762 25.79351 26465 ft 431 kts 341°
2026-05-06 17:58 38.56635 25.78236 26752 ft 433 kts 341°
2026-05-06 17:58 38.59518 25.77099 27041 ft 434 kts 341°
2026-05-06 17:58 38.62408 25.75952 27315 ft 436 kts 341°
2026-05-06 17:58 38.65307 25.74804 27650 ft 436 kts 341°
2026-05-06 17:59 38.68197 25.73659 28088 ft 434 kts 341°
2026-05-06 17:59 38.71072 25.72520 28548 ft 431 kts 340°
2026-05-06 17:59 38.73935 25.71386 28956 ft 430 kts 340°
2026-05-06 17:59 38.76794 25.70251 29334 ft 430 kts 340°
2026-05-06 18:00 38.79650 25.69117 29731 ft 429 kts 340°
2026-05-06 18:00 38.82494 25.67985 30148 ft 428 kts 340°
2026-05-06 18:00 38.85329 25.66857 30522 ft 426 kts 340°
2026-05-06 18:00 38.88158 25.65731 30841 ft 425 kts 340°
2026-05-06 18:01 38.90985 25.64604 31118 ft 426 kts 340°
2026-05-06 18:01 38.93816 25.63474 31390 ft 426 kts 340°
2026-05-06 18:01 38.96650 25.62342 31621 ft 427 kts 340°
2026-05-06 18:01 38.99486 25.61208 31914 ft 427 kts 340°
2026-05-06 18:02 39.02319 25.60076 32278 ft 425 kts 340°
2026-05-06 18:02 39.05138 25.58948 32617 ft 424 kts 340°
2026-05-06 18:02 39.07948 25.57822 32910 ft 423 kts 340°
2026-05-06 18:02 39.10761 25.56694 33211 ft 423 kts 340°
2026-05-06 18:03 39.13568 25.55567 33505 ft 422 kts 340°
2026-05-06 18:03 39.16370 25.54442 33794 ft 422 kts 340°
2026-05-06 18:03 39.19174 25.53314 34076 ft 422 kts 340°
2026-05-06 18:03 39.21973 25.52188 34314 ft 421 kts 340°
2026-05-06 18:04 39.24733 25.51077 34536 ft 421 kts 340°
2026-05-06 18:04 39.26619 25.50317 34695 ft 420 kts 340°
2026-05-06 18:04 39.29408 25.49192 34919 ft 420 kts 340°
2026-05-06 18:04 39.32200 25.48065 35145 ft 420 kts 340°
2026-05-06 18:05 39.35895 25.46572 35396 ft 421 kts 340°
2026-05-06 18:05 39.38687 25.45444 35614 ft 420 kts 340°
2026-05-06 18:05 39.41473 25.44316 35862 ft 419 kts 340°
2026-05-06 18:05 39.43351 25.43556 36005 ft 419 kts 340°
2026-05-06 18:06 39.48948 25.41286 36061 ft 423 kts 340°
2026-05-06 18:06 39.54540 25.39015 36063 ft 419 kts 340°
2026-05-06 18:07 39.60084 25.36761 36061 ft 416 kts 340°
2026-05-06 18:07 39.65591 25.34516 36065 ft 414 kts 340°
2026-05-06 18:08 39.71076 25.32277 36048 ft 414 kts 340°
2026-05-06 18:08 39.76619 25.30009 36078 ft 421 kts 340°
2026-05-06 18:09 39.82235 25.27709 36052 ft 424 kts 340°
2026-05-06 18:09 39.87859 25.25403 36049 ft 424 kts 340°
2026-05-06 18:10 39.93144 25.22129 36051 ft 420 kts 325°
2026-05-06 18:10 39.97625 25.17278 36051 ft 419 kts 317°
2026-05-06 18:11 40.01942 25.12168 36047 ft 419 kts 317°
2026-05-06 18:11 40.06263 25.07068 36049 ft 419 kts 317°
2026-05-06 18:12 40.10561 25.02017 36053 ft 418 kts 317°
2026-05-06 18:12 40.14884 24.96941 36046 ft 418 kts 317°
2026-05-06 18:13 40.19201 24.91864 36052 ft 417 kts 317°
2026-05-06 18:13 40.23515 24.86783 36052 ft 417 kts 317°
2026-05-06 18:14 40.27826 24.81694 36062 ft 417 kts 317°
2026-05-06 18:14 40.32136 24.76598 36051 ft 417 kts 317°
2026-05-06 18:15 40.36446 24.71493 36049 ft 417 kts 317°
2026-05-06 18:15 40.40754 24.66381 36049 ft 417 kts 317°
2026-05-06 18:16 40.45057 24.61266 36044 ft 417 kts 317°
2026-05-06 18:16 40.49357 24.56144 36044 ft 417 kts 317°
2026-05-06 18:17 40.53656 24.51016 36043 ft 417 kts 317°
2026-05-06 18:17 40.57952 24.45880 36045 ft 417 kts 317°
2026-05-06 18:18 40.62248 24.40737 36041 ft 417 kts 317°
2026-05-06 18:18 40.66510 24.35624 36034 ft 417 kts 317°
2026-05-06 18:19 40.70799 24.30470 36042 ft 417 kts 317°
2026-05-06 18:19 40.75087 24.25307 36041 ft 418 kts 317°
2026-05-06 18:20 40.79376 24.20134 36037 ft 418 kts 317°
2026-05-06 18:20 40.83667 24.14948 36047 ft 418 kts 317°
2026-05-06 18:21 40.87963 24.09747 36036 ft 419 kts 317°
2026-05-06 18:21 40.92263 24.04533 36045 ft 420 kts 316°
2026-05-06 18:22 40.96570 23.99299 36035 ft 421 kts 316°
2026-05-06 18:22 41.00883 23.94048 36040 ft 421 kts 316°
2026-05-06 18:23 41.05193 23.88792 36037 ft 421 kts 316°
2026-05-06 18:23 41.09499 23.83531 36038 ft 421 kts 316°
2026-05-06 18:24 41.13798 23.78267 36032 ft 420 kts 316°
2026-05-06 18:24 41.18092 23.73002 36023 ft 420 kts 316°
2026-05-06 18:25 41.22355 23.67762 36036 ft 420 kts 316°
2026-05-06 18:25 41.26651 23.62474 36039 ft 421 kts 316°
2026-05-06 18:26 41.30943 23.57179 36043 ft 421 kts 316°
2026-05-06 18:26 41.35234 23.51876 36032 ft 421 kts 316°
2026-05-06 18:27 41.39567 23.46627 36037 ft 422 kts 321°
2026-05-06 18:27 41.44637 23.42647 36046 ft 425 kts 332°
2026-05-06 18:28 41.49973 23.39239 36049 ft 425 kts 332°
2026-05-06 18:28 41.55301 23.35810 36045 ft 426 kts 332°
2026-05-06 18:29 41.60626 23.32342 36049 ft 426 kts 331°
2026-05-06 18:29 41.65948 23.28855 36049 ft 426 kts 332°
2026-05-06 18:30 41.71268 23.25360 36051 ft 426 kts 331°
2026-05-06 18:30 41.76593 23.21857 36045 ft 427 kts 331°
2026-05-06 18:31 41.81919 23.18347 36052 ft 427 kts 331°
2026-05-06 18:31 41.87247 23.14829 36053 ft 427 kts 331°
2026-05-06 18:32 41.92581 23.11301 36053 ft 427 kts 331°
2026-05-06 18:32 41.97920 23.07762 36039 ft 428 kts 331°
2026-05-06 18:33 42.03252 23.04222 36032 ft 428 kts 331°
2026-05-06 18:33 42.08584 23.00675 36033 ft 428 kts 331°
2026-05-06 18:34 42.13922 22.97118 36023 ft 428 kts 331°
2026-05-06 18:34 42.19264 22.93545 35995 ft 428 kts 331°
2026-05-06 18:35 42.24600 22.89977 36014 ft 428 kts 331°
2026-05-06 18:35 42.29908 22.86421 36022 ft 429 kts 331°
2026-05-06 18:36 42.35249 22.82830 36027 ft 429 kts 331°
2026-05-06 18:36 42.40600 22.79224 36018 ft 430 kts 331°
2026-05-06 18:37 42.45086 22.76196 36009 ft 430 kts 331°
2026-05-06 18:37 42.51311 22.71986 36019 ft 431 kts 330°
2026-05-06 18:38 42.56659 22.68362 36015 ft 431 kts 331°
2026-05-06 18:38 42.62038 22.64710 36017 ft 431 kts 331°
2026-05-06 18:39 42.67397 22.61063 36018 ft 430 kts 331°
2026-05-06 18:40 42.75424 22.55584 36017 ft 430 kts 330°
2026-05-06 18:40 42.80772 22.51926 36009 ft 430 kts 330°
2026-05-06 18:41 42.86126 22.48262 36010 ft 431 kts 331°
2026-05-06 18:41 42.91500 22.44646 36003 ft 431 kts 331°
2026-05-06 18:42 42.96887 22.41034 36009 ft 431 kts 331°
2026-05-06 18:42 43.02270 22.37411 35994 ft 432 kts 331°
2026-05-06 18:43 43.07659 22.33770 35974 ft 432 kts 331°
2026-05-06 18:43 43.13048 22.30121 35971 ft 432 kts 331°
2026-05-06 18:44 43.18398 22.26491 35980 ft 432 kts 331°
2026-05-06 18:44 43.23783 22.22830 35970 ft 431 kts 331°
2026-05-06 18:45 43.29154 22.19170 35971 ft 432 kts 331°
2026-05-06 18:45 43.34545 22.15490 35963 ft 433 kts 331°
2026-05-06 18:46 43.39950 22.11793 35977 ft 434 kts 331°
2026-05-06 18:46 43.45368 22.08079 35967 ft 436 kts 331°
2026-05-06 18:47 43.50793 22.04355 35964 ft 436 kts 331°
2026-05-06 18:47 43.56224 22.00617 35970 ft 436 kts 331°
2026-05-06 18:48 43.61651 21.96876 35972 ft 436 kts 331°
2026-05-06 18:48 43.67081 21.93124 35959 ft 437 kts 330°
2026-05-06 18:49 43.72520 21.89358 35954 ft 437 kts 330°
2026-05-06 18:49 43.77957 21.85587 35958 ft 437 kts 330°
2026-05-06 18:50 43.83390 21.81810 35955 ft 437 kts 330°
2026-05-06 18:50 43.88814 21.78032 35953 ft 436 kts 330°
2026-05-06 18:51 43.94225 21.74257 35968 ft 434 kts 330°
2026-05-06 18:51 43.99582 21.70508 35968 ft 435 kts 330°
2026-05-06 18:52 44.04983 21.66723 35965 ft 435 kts 330°
2026-05-06 18:52 44.10390 21.62925 35960 ft 436 kts 330°
2026-05-06 18:53 44.14932 21.59728 35950 ft 437 kts 330°
2026-05-06 18:53 44.20325 21.55926 35947 ft 438 kts 330°
2026-05-06 18:54 44.25764 21.52084 35950 ft 438 kts 330°
2026-05-06 18:54 44.31203 21.48234 35947 ft 439 kts 330°
2026-05-06 18:55 44.36650 21.44369 35934 ft 439 kts 330°
2026-05-06 18:55 44.42099 21.40494 35931 ft 440 kts 329°
2026-05-06 18:56 44.47552 21.36610 35935 ft 440 kts 329°
2026-05-06 18:56 44.53001 21.32721 35936 ft 440 kts 329°
2026-05-06 18:57 44.58452 21.28821 35930 ft 440 kts 329°
2026-05-06 18:57 44.63908 21.24908 35937 ft 440 kts 329°
2026-05-06 18:58 44.69365 21.20988 35928 ft 441 kts 329°
2026-05-06 18:58 44.74817 21.17063 35939 ft 440 kts 329°
2026-05-06 18:59 44.80247 21.13079 35931 ft 440 kts 328°
2026-05-06 18:59 44.85668 21.09045 35935 ft 440 kts 328°
2026-05-06 19:00 44.91084 21.05010 35931 ft 441 kts 328°
2026-05-06 19:00 44.96515 21.00963 35935 ft 442 kts 328°
2026-05-06 19:01 45.01953 20.96904 35938 ft 442 kts 328°
2026-05-06 19:01 45.07362 20.92859 35930 ft 443 kts 328°
2026-05-06 19:02 45.12820 20.88769 35928 ft 444 kts 328°
2026-05-06 19:02 45.18282 20.84667 35923 ft 444 kts 328°
2026-05-06 19:03 45.23748 20.80552 35938 ft 445 kts 328°
2026-05-06 19:03 45.29229 20.76417 35934 ft 446 kts 328°
2026-05-06 19:04 45.34719 20.72267 35926 ft 447 kts 328°
2026-05-06 19:04 45.40211 20.68106 35927 ft 448 kts 328°
2026-05-06 19:05 45.45711 20.63930 35923 ft 448 kts 328°
2026-05-06 19:05 45.51207 20.59746 35930 ft 448 kts 328°
2026-05-06 19:06 45.56713 20.55547 35922 ft 449 kts 328°
2026-05-06 19:06 45.62218 20.51338 35922 ft 449 kts 328°
2026-05-06 19:07 45.67725 20.47118 35922 ft 449 kts 328°
2026-05-06 19:07 45.73227 20.42893 35918 ft 449 kts 328°
2026-05-06 19:08 45.78731 20.38657 35926 ft 449 kts 328°
2026-05-06 19:08 45.84240 20.34407 35916 ft 450 kts 328°
2026-05-06 19:09 45.89750 20.30146 35910 ft 450 kts 328°
2026-05-06 19:09 45.95261 20.25876 35917 ft 450 kts 328°
2026-05-06 19:10 46.00767 20.21599 35923 ft 451 kts 328°
2026-05-06 19:10 46.06277 20.17309 35921 ft 451 kts 328°
2026-05-06 19:11 46.11797 20.13001 35914 ft 452 kts 328°
2026-05-06 19:11 46.17331 20.08671 35914 ft 452 kts 327°
2026-05-06 19:12 46.22804 20.04304 35910 ft 453 kts 327°
2026-05-06 19:12 46.28306 19.99874 35912 ft 453 kts 327°
2026-05-06 19:13 46.33805 19.95441 35914 ft 452 kts 327°
2026-05-06 19:13 46.36416 19.92949 35908 ft 447 kts 316°
2026-05-06 19:13 46.38641 19.89851 35917 ft 442 kts 307°
2026-05-06 19:14 46.42601 19.83068 35909 ft 441 kts 306°
2026-05-06 19:14 46.46543 19.76264 35921 ft 441 kts 307°
2026-05-06 19:15 46.50507 19.69484 35937 ft 441 kts 307°
2026-05-06 19:15 46.54490 19.62702 35926 ft 441 kts 307°
2026-05-06 19:16 46.58474 19.55914 35926 ft 442 kts 307°
2026-05-06 19:16 46.62456 19.49113 35923 ft 442 kts 307°
2026-05-06 19:17 46.66448 19.42276 35917 ft 443 kts 307°
2026-05-06 19:17 46.70433 19.35433 35924 ft 443 kts 306°
2026-05-06 19:18 46.74393 19.28615 35923 ft 444 kts 306°
2026-05-06 19:18 46.78382 19.21732 35918 ft 444 kts 306°
2026-05-06 19:19 46.82351 19.14865 35917 ft 444 kts 306°
2026-05-06 19:19 46.86332 19.07960 35930 ft 444 kts 306°
2026-05-06 19:20 46.90311 19.01043 35913 ft 444 kts 306°
2026-05-06 19:20 46.94285 18.94115 35904 ft 444 kts 306°
2026-05-06 19:21 46.98261 18.87164 35565 ft 446 kts 306°
2026-05-06 19:21 47.00252 18.83679 35311 ft 445 kts 306°
2026-05-06 19:21 47.02234 18.80204 35060 ft 444 kts 306°
2026-05-06 19:21 47.04214 18.76729 34837 ft 444 kts 306°
2026-05-06 19:22 47.06186 18.73263 34591 ft 443 kts 306°
2026-05-06 19:22 47.08161 18.69786 34352 ft 443 kts 306°
2026-05-06 19:22 47.10130 18.66317 34007 ft 442 kts 306°
2026-05-06 19:22 47.12103 18.62835 33296 ft 443 kts 306°
2026-05-06 19:23 47.14069 18.59361 32608 ft 443 kts 306°
2026-05-06 19:23 47.16038 18.55877 31935 ft 443 kts 306°
2026-05-06 19:23 47.18012 18.52380 31224 ft 444 kts 306°
2026-05-06 19:23 47.19986 18.48877 30515 ft 445 kts 306°
2026-05-06 19:24 47.21966 18.45362 29767 ft 447 kts 306°
2026-05-06 19:24 47.23949 18.41835 28882 ft 448 kts 306°
2026-05-06 19:24 47.25926 18.38317 28350 ft 443 kts 306°
2026-05-06 19:24 47.27882 18.34835 27746 ft 439 kts 306°
2026-05-06 19:25 47.29815 18.31387 27193 ft 434 kts 306°
2026-05-06 19:25 47.31729 18.27969 26637 ft 431 kts 306°
2026-05-06 19:25 47.33626 18.24574 26099 ft 427 kts 306°
2026-05-06 19:25 47.35503 18.21211 25564 ft 424 kts 306°
2026-05-06 19:26 47.37368 18.17863 25032 ft 421 kts 306°
2026-05-06 19:26 47.39221 18.14535 24515 ft 418 kts 306°
2026-05-06 19:26 47.41041 18.11261 23939 ft 418 kts 306°
2026-05-06 19:26 47.42874 18.07958 23429 ft 415 kts 306°
2026-05-06 19:27 47.44701 18.04666 22812 ft 413 kts 306°
2026-05-06 19:27 47.46514 18.01395 22257 ft 410 kts 306°
2026-05-06 19:27 47.48310 17.98148 21717 ft 407 kts 306°
2026-05-06 19:27 47.50093 17.94924 21179 ft 403 kts 306°
2026-05-06 19:28 47.51862 17.91720 20658 ft 400 kts 306°
2026-05-06 19:28 47.53594 17.88578 20156 ft 398 kts 306°
2026-05-06 19:28 47.55334 17.85419 19643 ft 395 kts 306°
2026-05-06 19:28 47.57065 17.82272 19163 ft 393 kts 306°
2026-05-06 19:29 47.58787 17.79138 18656 ft 391 kts 306°
2026-05-06 19:29 47.60499 17.76018 18150 ft 390 kts 306°
2026-05-06 19:29 47.62206 17.72904 17578 ft 388 kts 306°
2026-05-06 19:29 47.63900 17.69811 17044 ft 385 kts 305°
2026-05-06 19:30 47.65583 17.66734 16521 ft 383 kts 305°
2026-05-06 19:30 47.67252 17.63679 16033 ft 380 kts 305°
2026-05-06 19:30 47.68909 17.60645 15539 ft 377 kts 304°
2026-05-06 19:30 47.70557 17.57622 15047 ft 375 kts 304°
2026-05-06 19:31 47.72193 17.54617 14567 ft 373 kts 304°
2026-05-06 19:31 47.73702 17.51520 14080 ft 366 kts 291°
2026-05-06 19:31 47.74401 17.44473 13878 ft 338 kts 261°
2026-05-06 19:32 47.74166 17.41064 13824 ft 326 kts 259°
2026-05-06 19:32 47.73908 17.37799 13808 ft 311 kts 259°
2026-05-06 19:32 47.73662 17.34677 13806 ft 297 kts 259°
2026-05-06 19:32 47.73433 17.31691 13801 ft 284 kts 259°
2026-05-06 19:33 47.73219 17.28838 13802 ft 272 kts 259°
2026-05-06 19:33 47.73019 17.26118 13812 ft 259 kts 258°
2026-05-06 19:33 47.72829 17.23519 13803 ft 247 kts 258°
2026-05-06 19:33 47.72645 17.21016 13689 ft 244 kts 258°
2026-05-06 19:34 47.72450 17.18417 13403 ft 268 kts 258°
2026-05-06 19:34 47.72247 17.15560 13096 ft 285 kts 263°
2026-05-06 19:34 47.72642 17.12612 12724 ft 304 kts 292°
2026-05-06 19:34 47.73918 17.10112 12429 ft 317 kts 313°
2026-05-06 19:35 47.75701 17.08137 12117 ft 320 kts 320°
2026-05-06 19:35 47.77547 17.06296 11855 ft 316 kts 321°
2026-05-06 19:35 47.79353 17.04521 11805 ft 307 kts 321°
2026-05-06 19:35 47.81114 17.02780 11790 ft 301 kts 321°
2026-05-06 19:36 47.82858 17.01036 11665 ft 304 kts 321°
2026-05-06 19:36 47.84625 16.99254 11426 ft 308 kts 321°
2026-05-06 19:36 47.86399 16.97459 11183 ft 310 kts 321°
2026-05-06 19:36 47.88179 16.95653 10940 ft 308 kts 321°
2026-05-06 19:37 47.89941 16.93865 10688 ft 305 kts 320°
2026-05-06 19:37 47.91679 16.92096 10438 ft 301 kts 320°
2026-05-06 19:37 47.93400 16.90343 10194 ft 298 kts 320°
2026-05-06 19:37 47.94529 16.89192 10085 ft 296 kts 320°
2026-05-06 19:38 47.96821 16.86850 10026 ft 299 kts 320°
2026-05-06 19:38 47.98530 16.85105 10011 ft 296 kts 320°
2026-05-06 19:38 47.99655 16.83956 10007 ft 296 kts 320°
2026-05-06 19:38 48.01421 16.82364 9988 ft 297 kts 327°
2026-05-06 19:39 48.03237 16.81000 9977 ft 286 kts 328°
2026-05-06 19:39 48.04985 16.79717 9977 ft 274 kts 328°
2026-05-06 19:39 48.06656 16.78465 9869 ft 266 kts 327°
2026-05-06 19:39 48.08858 16.76778 9403 ft 270 kts 327°
2026-05-06 19:40 48.09988 16.75909 9162 ft 272 kts 327°
2026-05-06 19:40 48.11672 16.74611 8802 ft 271 kts 327°
2026-05-06 19:40 48.13337 16.73329 8464 ft 267 kts 327°
2026-05-06 19:40 48.14972 16.72069 8156 ft 262 kts 327°
2026-05-06 19:41 48.16577 16.70831 7851 ft 257 kts 327°
2026-05-06 19:41 48.18154 16.69613 7545 ft 253 kts 326°
2026-05-06 19:41 48.19703 16.68415 7246 ft 249 kts 326°
2026-05-06 19:41 48.21250 16.67216 6965 ft 250 kts 326°
2026-05-06 19:42 48.22814 16.66090 6664 ft 251 kts 334°
2026-05-06 19:42 48.24476 16.65348 6414 ft 248 kts 339°
2026-05-06 19:42 48.26121 16.64712 6179 ft 243 kts 339°
2026-05-06 19:42 48.27736 16.64082 6028 ft 238 kts 338°
2026-05-06 19:43 48.29344 16.63433 6005 ft 240 kts 338°
2026-05-06 19:43 48.30946 16.62773 5985 ft 237 kts 338°
2026-05-06 19:43 48.32528 16.62112 5984 ft 236 kts 339°
2026-05-06 19:43 48.34114 16.61446 5989 ft 237 kts 339°
2026-05-06 19:44 48.35706 16.60776 5984 ft 238 kts 339°
2026-05-06 19:44 48.37298 16.60104 5981 ft 238 kts 338°
2026-05-06 19:44 48.38889 16.59433 5973 ft 237 kts 338°
2026-05-06 19:44 48.40474 16.58763 5990 ft 237 kts 338°
2026-05-06 19:45 48.42036 16.58106 6009 ft 234 kts 340°
2026-05-06 19:45 48.43594 16.57449 5965 ft 225 kts 340°
2026-05-06 19:45 48.45055 16.56832 5952 ft 217 kts 339°
2026-05-06 19:45 48.46501 16.56218 5966 ft 217 kts 339°
2026-05-06 19:46 48.47971 16.55592 5980 ft 222 kts 339°
2026-05-06 19:46 48.49471 16.54954 5985 ft 225 kts 340°
2026-05-06 19:46 48.50976 16.54315 5971 ft 224 kts 339°
2026-05-06 19:46 48.52442 16.53581 5955 ft 219 kts 325°
2026-05-06 19:47 48.53419 16.51980 5972 ft 204 kts 288°
2026-05-06 19:47 48.53675 16.49922 5975 ft 201 kts 265°
2026-05-06 19:47 48.53411 16.47846 5983 ft 203 kts 259°
2026-05-06 19:47 48.53533 16.45739 5985 ft 203 kts 283°
2026-05-06 19:48 48.53957 16.43681 5970 ft 207 kts 284°
2026-05-06 19:48 48.54413 16.41616 5967 ft 208 kts 285°
2026-05-06 19:48 48.54874 16.39539 5972 ft 209 kts 285°
2026-05-06 19:48 48.55338 16.37459 5963 ft 209 kts 285°
2026-05-06 19:49 48.55799 16.35383 5958 ft 208 kts 285°
2026-05-06 19:49 48.56400 16.33387 5942 ft 213 kts 304°
2026-05-06 19:49 48.57608 16.32092 5961 ft 221 kts 338°
2026-05-06 19:49 48.59161 16.32031 5956 ft 232 kts 16°
2026-05-06 19:50 48.60563 16.33280 5992 ft 239 kts 46°
2026-05-06 19:50 48.61409 16.35428 5957 ft 239 kts 79°
2026-05-06 19:50 48.61380 16.37850 5964 ft 229 kts 114°
2026-05-06 19:50 48.60565 16.39810 5961 ft 219 kts 144°
2026-05-06 19:51 48.59240 16.40871 5813 ft 216 kts 163°
2026-05-06 19:51 48.57805 16.41589 5548 ft 218 kts 171°
2026-05-06 19:51 48.56313 16.41901 5265 ft 215 kts 176°
2026-05-06 19:51 48.54851 16.42231 5049 ft 209 kts 175°
2026-05-06 19:52 48.53463 16.42578 4968 ft 195 kts 175°
2026-05-06 19:52 48.52140 16.42923 4974 ft 193 kts 175°
2026-05-06 19:52 48.50814 16.43262 4971 ft 193 kts 175°
2026-05-06 19:52 48.49497 16.43605 4960 ft 192 kts 175°
2026-05-06 19:53 48.48184 16.43956 4958 ft 191 kts 175°
2026-05-06 19:53 48.46866 16.44304 4966 ft 194 kts 175°
2026-05-06 19:53 48.45564 16.44649 4955 ft 186 kts 175°
2026-05-06 19:53 48.44316 16.44987 4965 ft 178 kts 175°
2026-05-06 19:54 48.43105 16.45351 4962 ft 179 kts 168°
2026-05-06 19:54 48.42112 16.46531 4966 ft 194 kts 120°
2026-05-06 19:54 48.41668 16.48485 4880 ft 200 kts 129°